[[{"header":{"parameterUnit":"m.s-1","parameterCategory":1,"la1":30.2991,"la2":30.254,"lo1":-89.0895,"lo2":-89.0444,"dy":0.0017,"dx":0.0017,"nx":28,"ny":28,"refTime":"2024-05-05T21:00:00:Z","depth":0,"parameterNumber":2,"parameterNumberName":"U-component_of_WINDS"},"data":[0,0,0,0,0,0,0,0,0,0,0,0,0,0,0,0,0,0,0,0,0,0,0,0,0,0,0,0,0,0,0,0,0,0,0,0,0,0,0,0,0,0,0,0,0,0,0,0,0,0,0,0,0,0,0,0,0,0,-0.6081,-0.6082,0,-0.6181,-0.6182,-0.6184,-0.6223,-0.6223,-0.6222,-0.6222,-0.6329,-0.6332,-0.6335,0,0,0,0,0,0,0,0,0,0,0,0,0,-0.593,-0.5933,-0.6081,-0.6083,-0.6084,-0.6181,-0.6182,-0.6184,-0.6223,-0.6223,-0.6222,-0.6222,-0.6328,-0.6332,-0.6336,0,0,0,0,0,0,0,0,0,0,0,0,0,-0.601,-0.5934,-0.6081,-0.6115,-0.6119,-0.6181,-0.6183,-0.6184,-0.6223,-0.6222,-0.6222,-0.6222,-0.6327,-0.6332,-0.6336,-0.6373,0,0,-0.635,-0.6352,0,0,0,0,0,0,0,0,-0.6005,-0.6015,-0.6109,-0.6113,-0.6117,-0.6189,-0.6169,-0.6248,-0.6223,-0.6184,-0.6222,-0.6221,-0.6283,-0.6292,-0.6311,-0.6378,-0.6383,-0.6351,-0.6354,-0.6356,-0.6357,0,0,0,0,0,0,0,-0.6,-0.6011,-0.6121,-0.611,-0.6115,-0.6127,-0.6138,-0.6184,-0.6235,-0.6187,-0.619,-0.6201,-0.6286,-0.6307,-0.6314,-0.6385,-0.6351,-0.6355,-0.6358,-0.636,-0.6489,-0.649,0,0,0,0,0,0,-0.5988,-0.6006,-0.6118,-0.6124,-0.6059,-0.613,-0.6142,-0.6167,-0.6234,-0.6244,-0.6201,-0.6203,-0.6299,-0.6309,-0.6318,-0.6367,-0.6356,-0.636,-0.6363,-0.6489,-0.6489,-0.649,0,0,0,0,0,0,-0.5984,-0.5997,-0.6114,-0.6066,-0.6082,-0.6133,-0.616,-0.6169,-0.619,-0.6245,-0.6255,-0.6213,-0.6299,-0.6312,-0.6359,-0.6372,-0.6362,-0.6366,-0.6488,-0.6489,-0.649,-0.6465,0,0,0,0,0,0,-0.598,-0.5996,-0.6009,-0.6066,-0.6084,-0.6152,-0.6161,-0.6171,-0.6197,-0.62,-0.6259,-0.6268,-0.63,-0.6352,-0.6364,-0.6378,-0.637,-0.6487,-0.6488,-0.6489,-0.6465,-0.6465,-0.6465,0,0,0,0,0,-0.5974,-0.5999,-0.6009,-0.6023,-0.6101,-0.6152,-0.6163,-0.6197,-0.6198,-0.6213,-0.6249,-0.6266,-0.6368,-0.6357,-0.637,-0.6386,-0.6487,-0.6488,-0.6489,-0.6465,-0.6465,-0.6465,0,0,0,0,0,0,-0.5944,-0.6007,-0.6019,-0.6063,-0.6102,-0.6159,-0.6178,-0.6196,-0.6237,-0.6237,-0.628,-0.6293,-0.6338,-0.6367,-0.6353,-0.6426,-0.6429,-0.6433,-0.6406,-0.6406,-0.6406,-0.6399,-0.6374,0,0,0,0,0,-0.5942,-0.5976,-0.603,-0.6063,-0.6082,-0.6127,-0.615,-0.6173,-0.6216,-0.6233,-0.6272,-0.6314,-0.6356,-0.6383,-0.6424,-0.6469,-0.6484,-0.6487,-0.6487,-0.6487,-0.649,-0.6518,-0.652,-0.6495,-0.6495,-0.6495,0,0,-0.5939,-0.5977,-0.5997,-0.6058,-0.6091,-0.6127,-0.614,-0.6178,-0.6206,-0.6239,-0.6287,-0.6317,-0.6367,-0.6414,-0.6437,-0.644,-0.65,-0.6488,-0.6488,-0.6492,-0.652,-0.6522,-0.6524,-0.6496,-0.6496,-0.6496,0,0,-0.5952,-0.5983,-0.6015,-0.6047,-0.6096,-0.6126,-0.6134,-0.6188,-0.6209,-0.6257,-0.6283,-0.6318,-0.6389,-0.6424,-0.6451,-0.6478,-0.6496,-0.649,-0.649,-0.6517,-0.6519,-0.6521,-0.6532,-0.6535,-0.6493,-0.6493,-0.6493,0,-0.5942,-0.5996,-0.603,-0.6066,-0.6093,-0.6123,-0.6157,-0.6187,-0.6248,-0.6267,-0.6269,-0.6358,-0.6394,-0.6451,-0.6457,-0.6478,-0.6489,-0.6484,-0.6516,-0.6518,-0.652,-0.6531,-0.6535,-0.6492,-0.6492,-0.6492,-0.6492,0,-0.5982,-0.6019,-0.6039,-0.6096,-0.6125,-0.616,-0.6201,-0.6227,-0.6248,-0.6278,-0.6327,-0.6371,-0.6422,-0.6438,-0.6458,-0.6498,-0.6498,-0.6507,-0.6511,-0.6521,-0.6532,-0.6537,-0.6491,-0.6491,-0.6491,-0.6492,0,0,-0.5979,-0.6053,-0.606,-0.6086,-0.6143,-0.6173,-0.6211,-0.6259,-0.6281,-0.6323,-0.6356,-0.6415,-0.6424,-0.6455,-0.648,-0.6503,-0.6524,-0.651,-0.6512,-0.6512,-0.6571,-0.6565,-0.6569,-0.6536,-0.6537,-0.6538,-0.6568,0,-0.6,-0.6065,-0.6098,-0.615,-0.6186,-0.6215,-0.6248,-0.6287,-0.6317,-0.6353,-0.6386,-0.6428,-0.6436,-0.6455,-0.6479,-0.6516,-0.6536,-0.6514,-0.657,-0.6571,-0.6557,-0.6574,-0.6567,-0.6593,-0.6572,-0.6573,-0.6573,0,-0.6034,-0.6073,-0.6128,-0.6181,-0.6198,-0.6226,-0.6274,-0.6308,-0.6354,-0.6374,-0.6408,-0.6433,-0.6475,-0.6475,-0.6535,-0.6519,-0.6544,-0.6565,-0.6567,-0.6575,-0.6573,-0.6583,-0.6602,-0.6606,-0.658,-0.658,-0.6579,0,-0.6027,-0.6094,-0.6136,-0.6158,-0.622,-0.624,-0.6267,-0.6313,-0.634,-0.6383,-0.6402,-0.6449,-0.6475,-0.6512,-0.655,-0.6546,-0.6607,-0.6609,-0.6626,-0.6625,-0.6638,-0.6637,-0.6663,-0.6652,-0.6652,-0.6652,-0.6652,0,-0.6048,-0.6081,-0.6134,-0.616,-0.6199,-0.6236,-0.6274,-0.6304,-0.6344,-0.6378,-0.6407,-0.6439,-0.6486,-0.6524,-0.6554,-0.66,-0.6612,-0.6631,-0.6638,-0.6629,-0.6626,-0.6646,-0.6646,-0.6653,-0.6653,-0.6653,-0.6653,0,-0.6047,-0.6084,-0.6132,-0.6187,-0.6202,-0.6228,-0.6276,-0.6304,-0.6334,-0.6377,-0.639,-0.6439,-0.6485,-0.6526,-0.6588,-0.6608,-0.6656,-0.6665,-0.664,-0.6644,-0.6659,-0.6658,-0.6699,-0.6707,-0.669,-0.669,-0.669,0,-0.6058,-0.6084,-0.6142,-0.6166,-0.6192,-0.6231,-0.6259,-0.6297,-0.6326,-0.638,-0.6402,-0.645,-0.6491,-0.6564,-0.6607,-0.6655,-0.6666,-0.6677,-0.6674,-0.6663,-0.6668,-0.6666,-0.667,-0.6677,-0.6677,-0.6677,-0.6677,0,-0.6075,-0.6092,-0.613,-0.6175,-0.6207,-0.6245,-0.6283,-0.6302,-0.6348,-0.6379,-0.6426,-0.6457,-0.652,-0.6569,-0.6622,-0.6652,-0.6673,-0.6678,-0.6685,-0.6676,-0.666,-0.667,-0.6641,-0.6677,-0.6677,-0.6677,-0.6677,-0.6677,-0.6082,-0.6107,-0.6151,-0.6193,-0.6226,-0.6261,-0.629,-0.6324,-0.6363,-0.6417,-0.6437,-0.6486,-0.6533,-0.6606,-0.6637,-0.6677,-0.668,-0.669,-0.6692,-0.6694,-0.6693,-0.6653,-0.6686,-0.6686,-0.6687,-0.6687,-0.6687,0,-0.6101,-0.6131,-0.6169,-0.6222,-0.6255,-0.627,-0.6314,-0.6342,-0.6383,-0.6424,-0.6464,-0.6519,-0.6566,-0.6612,-0.6662,-0.6686,-0.6697,-0.6698,-0.6697,-0.6704,-0.6686,-0.6676,-0.6688,-0.6688,-0.6688,-0.6688,-0.6688,-0.6688,-0.6115,-0.6158,-0.618,-0.6241,-0.6271,-0.6318,-0.6342,-0.6376,-0.6409,-0.6468,-0.6507,-0.6536,-0.658,-0.6634,-0.6679,-0.6691,-0.6709,-0.6708,-0.6723,-0.6706,-0.6705,-0.6705,-0.6695,-0.6711,-0.6711,-0.6738,-0.6738,-0.6738]},{"header":{"parameterUnit":"m.s-1","parameterCategory":1,"la1":30.2991,"la2":30.254,"lo1":-89.0895,"lo2":-89.0444,"dy":0.0017,"dx":0.0017,"nx":28,"ny":28,"refTime":"2024-05-05T21:00:00:Z","depth":0,"parameterNumber":3,"parameterNumberName":"V-component_of_WINDS"},"data":[0,0,0,0,0,0,0,0,0,0,0,0,0,0,0,0,0,0,0,0,0,0,0,0,0,0,0,0,0,0,0,0,0,0,0,0,0,0,0,0,0,0,0,0,0,0,0,0,0,0,0,0,0,0,0,0,0,0,6.557,6.5571,0,6.5618,6.5619,6.5619,6.5564,6.5562,6.556,6.5558,6.5603,6.5606,6.5609,0,0,0,0,0,0,0,0,0,0,0,0,0,6.5425,6.5428,6.557,6.5571,6.5571,6.5618,6.5619,6.562,6.5564,6.5562,6.5559,6.5557,6.5602,6.5605,6.5609,0,0,0,0,0,0,0,0,0,0,0,0,0,6.5482,6.5429,6.557,6.5549,6.5548,6.5618,6.5619,6.562,6.5565,6.5561,6.5558,6.5555,6.56,6.5605,6.561,6.5701,0,0,6.5624,6.5626,0,0,0,0,0,0,0,0,6.5479,6.5487,6.5552,6.5551,6.555,6.5582,6.5584,6.5647,6.5565,6.5558,6.5558,6.5554,6.5598,6.5603,6.5618,6.5703,6.5705,6.5624,6.5627,6.5629,6.5631,0,0,0,0,0,0,0,6.5475,6.5485,6.5589,6.5553,6.5552,6.5536,6.5541,6.5596,6.5595,6.5559,6.5555,6.5561,6.5597,6.5614,6.5619,6.5706,6.5624,6.5628,6.5631,6.5633,6.5865,6.5869,0,0,0,0,0,0,6.5474,6.5482,6.5588,6.5591,6.5506,6.5541,6.5546,6.5575,6.5594,6.5594,6.5564,6.5559,6.5608,6.5614,6.562,6.5727,6.5629,6.5634,6.5636,6.5862,6.5866,6.587,0,0,0,0,0,0,6.5471,6.5484,6.5586,6.5535,6.5547,6.5547,6.5579,6.5577,6.5595,6.5598,6.5597,6.5582,6.5605,6.5614,6.5681,6.5728,6.5636,6.564,6.5858,6.5863,6.5868,6.5943,0,0,0,0,0,0,6.5467,6.5483,6.5519,6.5537,6.555,6.5647,6.5582,6.558,6.5603,6.5597,6.5615,6.5615,6.5604,6.5675,6.5686,6.5733,6.5644,6.5854,6.5861,6.5866,6.5936,6.595,6.5961,0,0,0,0,0,6.5462,6.5538,6.5521,6.5534,6.5595,6.565,6.5658,6.5644,6.5607,6.5643,6.5645,6.5615,6.5721,6.5682,6.5694,6.5743,6.5851,6.5859,6.5866,6.593,6.5947,6.5961,0,0,0,0,0,0,6.5525,6.554,6.5522,6.5606,6.5627,6.5641,6.5685,6.5662,6.5694,6.5686,6.5667,6.5671,6.5743,6.575,6.5705,6.5832,6.578,6.579,6.5824,6.584,6.5853,6.5849,6.5648,0,0,0,0,0,6.5549,6.5594,6.5604,6.5677,6.5689,6.5685,6.5709,6.5696,6.5717,6.5726,6.5733,6.5753,6.5791,6.5816,6.5851,6.5937,6.5939,6.5977,6.5989,6.6,6.6008,6.6052,6.6069,6.5895,6.5894,6.5894,0,0,6.5598,6.5612,6.5641,6.569,6.5705,6.575,6.5693,6.5744,6.5776,6.5733,6.5797,6.5803,6.5824,6.59,6.5934,6.5908,6.6057,6.6009,6.6018,6.6021,6.6062,6.6078,6.6093,6.59,6.5899,6.5898,0,0,6.5711,6.5727,6.5788,6.5805,6.5829,6.5826,6.5841,6.5858,6.586,6.5925,6.5892,6.593,6.5997,6.6012,6.6029,6.6147,6.6119,6.6159,6.6224,6.6267,6.6281,6.6293,6.6333,6.6348,6.6168,6.6168,6.6168,0,6.5768,6.5837,6.5823,6.5875,6.5897,6.5861,6.5922,6.5938,6.5972,6.5986,6.5957,6.6039,6.6051,6.6129,6.6158,6.6173,6.6188,6.6156,6.628,6.6292,6.6303,6.6341,6.6357,6.6172,6.6172,6.6171,6.6171,0,6.5906,6.5954,6.6,6.6035,6.6062,6.6118,6.6111,6.6139,6.6124,6.6124,6.6188,6.6201,6.6238,6.6256,6.6241,6.6332,6.6315,6.6284,6.6231,6.6325,6.636,6.6375,6.6179,6.6177,6.6176,6.6175,0,0,6.606,6.6085,6.6103,6.6117,6.6141,6.6176,6.623,6.6267,6.6291,6.6315,6.6359,6.6415,6.6386,6.6405,6.6392,6.643,6.652,6.6394,6.6394,6.6415,6.6619,6.6641,6.6659,6.6503,6.6506,6.6508,6.6617,0,6.6171,6.6267,6.6255,6.6345,6.6388,6.6354,6.64,6.6419,6.642,6.6454,6.6454,6.6494,6.6454,6.6464,6.6501,6.6502,6.6561,6.6494,6.6541,6.6543,6.6536,6.6678,6.6702,6.6804,6.663,6.6633,6.6635,0,6.6315,6.6345,6.644,6.6456,6.6473,6.6516,6.6547,6.6582,6.6601,6.6599,6.662,6.66,6.6652,6.6599,6.667,6.6624,6.6643,6.6646,6.665,6.6653,6.6594,6.6683,6.6837,6.6851,6.6657,6.6655,6.6653,0,6.6416,6.648,6.6545,6.6558,6.6579,6.6609,6.6618,6.6635,6.6657,6.6685,6.6698,6.6731,6.6749,6.6774,6.6762,6.6725,6.6834,6.6781,6.6832,6.6832,6.6856,6.6854,6.7013,6.687,6.687,6.687,6.6869,0,6.6541,6.66,6.659,6.663,6.6694,6.6679,6.6743,6.6748,6.6762,6.6801,6.6773,6.6809,6.6793,6.6828,6.6819,6.6877,6.6886,6.6884,6.6881,6.6886,6.6886,6.6897,6.6889,6.6874,6.6873,6.6872,6.6871,0,6.6664,6.666,6.6728,6.6742,6.6746,6.6793,6.6804,6.684,6.6838,6.6887,6.6898,6.6895,6.6934,6.6926,6.6969,6.6963,6.7036,6.7024,6.703,6.7026,6.7078,6.7072,6.7248,6.727,6.7114,6.7116,6.7117,0,6.6744,6.6789,6.6807,6.6832,6.6844,6.6883,6.6906,6.6892,6.6916,6.6941,6.6974,6.7011,6.704,6.7104,6.7105,6.7137,6.7125,6.7185,6.713,6.7133,6.7124,6.7121,6.7125,6.7195,6.7197,6.7198,6.72,0,6.6886,6.6881,6.6916,6.695,6.6978,6.7003,6.7026,6.7047,6.7034,6.7063,6.7103,6.7126,6.717,6.7206,6.7236,6.7244,6.7219,6.7217,6.723,6.7235,6.7236,6.7235,6.7058,6.7213,6.7211,6.7211,6.721,6.7209,6.6989,6.7026,6.7045,6.7084,6.7099,6.7121,6.7155,6.7158,6.7192,6.7227,6.7216,6.7262,6.7278,6.7316,6.7327,6.7361,6.7339,6.7358,6.7363,6.7368,6.7373,6.7232,6.7367,6.7366,6.7366,6.7366,6.7365,0,6.7128,6.7138,6.7174,6.7206,6.7236,6.7212,6.7235,6.7261,6.7302,6.732,6.7349,6.7395,6.743,6.7433,6.7466,6.7492,6.7482,6.7501,6.7498,6.75,6.7392,6.7377,6.7509,6.7509,6.7509,6.7509,6.7509,6.7509,6.7204,6.7265,6.7263,6.7331,6.734,6.7385,6.74,6.7419,6.7433,6.7485,6.7515,6.7517,6.7528,6.7561,6.7592,6.7592,6.7604,6.7628,6.7623,6.7522,6.7508,6.7494,6.748,6.7631,6.7631,6.7728,6.7729,6.7729]}]]